Regional Weather Roundup
Issued by NWS Burlington, VT

Home | Current Version | Previous Version | Text Only | Print | Product List | Glossary On
Versions: 1 2 3 4 5 6 7 8 9 10 11 12 13 14 15 16 17 18 19 20 21 22 23 24 25 26 27 28 29 30 31 32 33 34 35 36 37 38 39 40 41 42 43 44 45 46 47 48 49 50
000
ASUS41 KBTV 220810
RWRBTV
VERMONT REGIONAL WEATHER ROUNDUP
NATIONAL WEATHER SERVICE BURLINGTON VT
400 AM EDT MON SEP 22 2014

NOTE: "FAIR" INDICATES FEW OR NO CLOUDS BELOW 12,000 FEET WITH NO
SIGNIFICANT WEATHER AND/OR OBSTRUCTIONS TO VISIBILITY.

* THESE REPORTS ARE NOT UNDER NWS QUALITY CONTROL AND/OR DO NOT
  REPORT WEATHER SUCH AS PRECIPITATION AND FOG.

VTZ001>019-220900-
_____VERMONT_____


CITY           SKY/WX    TMP DP  RH WIND       PRES   REMARKS
BURLINGTON     MOSUNNY   61  57  87 S12       29.52S
MONTPELIER     PTSUNNY   60  54  80 W8        29.57S
MORRISVILLE    PTSUNNY   59  57  93 S3        29.54R
ST. JOHNSBURY*   N/A     60  59  96 MISG      29.51S
MIDDLEBURY*    CLOUDY    59  59 100 S3        29.56R
RUTLAND*       PTSUNNY   59  54  82 SW9G16    29.58R
SPRINGFIELD    CLOUDY    61  55  81 W6        29.58R
HIGHGATE*      CLOUDY    57  54  89 W3        29.52R
NEWPORT*       CLOUDY   N/A N/A N/A SW3       29.52R
BENNINGTON     CLOUDY    59  54  83 SW7       29.63R
SUTTON*          N/A     55 N/A N/A MISG        N/A

_____LAKE CHAMPLAIN_____


CITY           SKY/WX    TMP DP  RH WIND       PRES   REMARKS
COLCHESTER RF*   N/A     61  61 100 SW10        N/A

$$

NYZ007-026>031-035-052-083-220900-
_____NORTHERN NEW YORK_____


CITY           SKY/WX    TMP DP  RH WIND       PRES   REMARKS
PLATTSBURGH    PTSUNNY   61  56  83 W8        29.52R
SARANAC LAKE   CLOUDY    49  48  97 W8        29.59R
MASSENA        LGT RAIN  50  47  89 W13G23    29.64R
OGDENSBURG*    CLOUDY    48  46  93 NW8       29.68R
POTSDAM*       LGT RAIN  48  48 100 W10       29.66R
WATERTOWN      LGT RAIN  52  44  74 NW8       29.72R
FT DRUM        LGT RAIN  48  46  93 VRB5      29.71R FOG
ALBANY         MOSUNNY   61  53  75 SW8       29.63R
GLENS FALLS    MOSUNNY   56  54  93 S7        29.59R

$$
NHZ002-005-011-220900-
_____NEW HAMPSHIRE_____


CITY           SKY/WX    TMP DP  RH WIND       PRES   REMARKS
LEBANON        CLOUDY    63  56  78 SW6       29.55R
KEENE          PTSUNNY   61  52  72 S3        29.59R
MT WASHINGTON  PTSUNNY   45  39  81 W39G48      N/A
PLYMOUTH       LGT RAIN  62  61  98 NW3       29.53R
WHITEFIELD     RAIN      59  57  93 CALM      29.53F FOG

$$

_____REGIONAL QUEBEC LOCATIONS_____


CITY           SKY/WX    TMP DP  RH WIND       PRES   REMARKS
MONTREAL       CLOUDY    54  50  87 W18       29.52R
QUEBEC CITY    LGT RAIN  63  63 100 S6        29.41R VSB 3/4
SHERBROOKE     LGT RAIN  61  59  94 SW6       29.48R

_____REGIONAL ONTARIO LOCATIONS_____


CITY           SKY/WX    TMP DP  RH WIND       PRES   REMARKS
OTTAWA         CLOUDY    48  43  81 NW20G26   29.65R

______KEY______
VSB  - VISIBILITY IN MILES
WCI  - WIND CHILL INDEX
HX   - HEAT INDEX
$$
NNNN


USA.gov is the U.S. government's official web portal to all federal, state and local government web resources and services.